Temp
23 23 22 22 21 21 21 21 21 21 20 19 18 18 18 18 18 19 18 18 17 17 17 17 18 17 17 18 17 16 17 17
23 22 22 22 21 21 21 20 20 21 21 20 19 18 17 17 17 17 17 17 17 17 16 16 17 17 17 17 16 16 16 17
23 22 21 21 20 20 20 20 19 20 21 20 19 19 19 19 18 17 17 17 16 16 16 15 16 16 16 17 15 15 16 17
23 22 21 20 20 19 20 20 19 18 18 20 20 20 19 18 16 16 17 16 16 16 15 15 15 15 15 15 15 15 15 16
22 22 21 20 19 19 19 19 19 18 18 18 18 19 19 19 18 17 16 15 16 15 15 15 15 15 15 15 14 14 15 15
22 22 21 20 18 18 18 18 19 18 17 17 18 18 18 18 18 18 17 17 17 16 15 14 15 15 15 14 13 12 13 14
22 22 21 21 19 18 18 18 18 18 18 18 17 17 17 17 17 17 17 16 16 16 15 14 14 14 14 14 13 12 11 12
22 22 21 20 19 18 18 18 18 18 18 18 17 16 16 16 17 17 16 16 15 14 13 13 13 13 13 12 12 11 10 11
21 21 20 20 19 19 18 18 18 18 18 17 17 16 16 17 16 16 15 15 14 13 13 12 12 12 12 11 11 11 11 10
20 20 19 19 18 18 17 17 17 17 17 16 16 16 16 16 16 15 15 15 14 14 13 12 12 12 11 11 10 9 9 9
19 19 18 18 17 17 17 16 16 16 16 16 16 15 15 15 15 15 15 15 15 14 14 13 12 12 11 10 9 8 8 8
19 18 17 17 17 16 16 16 16 16 16 15 15 15 15 15 15 15 15 15 15 14 14 13 13 12 11 9 9 8 7 7
18 17 17 17 16 16 16 15 15 15 15 15 15 15 15 15 15 15 15 15 15 15 14 13 12 11 10 9 7 7 6 6
17 17 17 16 15 15 15 15 15 15 15 15 15 14 14 14 13 13 13 14 14 14 14 13 11 10 9 8 7 6 5 5
17 17 16 15 15 14 15 15 14 14 14 14 14 13 13 13 13 12 12 13 13 13 13 12 10 9 8 7 6 5 6 6
16 15 15 15 15 14 14 14 14 14 13 13 14 13 13 13 12 13 13 13 13 13 13 12 10 8 7 6 6 5 6 4
15 15 15 14 14 14 14 13 13 13 13 13 13 13 13 13 13 12 12 13 13 12 12 12 11 9 7 6 5 5 4 4
15 15 14 13 13 13 13 13 13 12 13 13 13 13 13 13 13 13 13 12 12 12 12 12 11 10 8 6 5 4 4 3
13 13 13 12 12 12 12 12 12 12 12 12 12 12 12 12 13 13 12 12 11 11 11 11 10 8 6 5 5 4 3 3
Height
770 772 772 772 772 771 770 771 771 771 772 773 774 774 773 775 776 777 778 779 780 784 786 788 789 790 792 795 798 799 801 803
770 771 772 773 774 774 775 774 773 771 771 773 772 771 771 770 771 772 772 774 774 776 779 781 781 783 783 787 791 795 794 794
770 771 773 775 777 778 778 777 776 774 772 772 770 769 768 768 769 768 768 770 769 769 771 771 774 774 774 777 778 784 787 788
771 773 776 777 778 778 777 778 777 777 774 771 770 768 768 766 765 764 764 763 763 762 762 763 764 766 764 765 768 768 774 777
771 773 776 778 780 780 779 778 778 776 775 773 772 769 766 765 765 763 762 760 758 756 756 754 754 755 756 755 756 758 761 761
770 773 776 778 781 780 780 779 777 777 775 773 770 768 766 763 761 761 760 757 755 754 753 751 750 748 745 744 750 750 749 753
771 771 773 775 779 780 779 779 776 774 773 771 770 768 765 763 760 759 756 755 752 751 750 747 745 743 740 739 735 737 739 739
769 770 772 775 778 778 778 776 774 772 770 768 766 765 763 760 757 754 753 751 748 747 746 743 742 740 738 736 735 732 730 733
771 771 773 773 774 774 773 773 771 767 765 763 761 760 758 755 752 750 748 747 745 742 740 738 736 734 734 733 731 730 728 727
773 773 774 774 774 773 773 771 768 765 762 760 757 754 753 751 748 746 743 741 740 740 737 735 733 731 729 728 726 725 726 723
772 774 774 774 774 773 771 769 764 761 759 757 753 751 748 746 744 741 739 736 734 733 733 730 729 728 725 723 722 719 719 719
771 772 772 772 771 769 768 765 762 759 756 754 751 748 745 742 740 737 734 731 730 727 726 725 724 723 721 720 717 715 713 712
770 769 768 769 768 766 763 762 759 756 754 751 749 746 742 738 734 730 728 727 726 723 723 721 719 718 716 714 712 707 707 706
767 767 766 766 765 762 758 757 755 754 752 750 746 744 741 739 736 731 730 726 723 721 718 716 714 712 711 710 707 705 702 701
763 764 764 764 762 760 755 753 753 751 748 747 745 742 739 737 734 734 730 727 722 717 714 712 709 707 705 701 701 701 697 695
762 762 761 759 756 754 752 750 748 746 744 741 737 736 734 732 731 728 725 720 716 714 710 706 704 702 699 697 695 694 691 691
760 758 756 754 752 749 747 745 743 740 737 734 731 728 726 722 719 718 717 712 710 707 703 700 699 697 693 691 690 689 687 685
754 753 752 751 748 746 743 740 736 733 730 726 723 720 717 714 711 708 706 705 704 701 697 695 692 692 689 687 685 683 681 680
755 753 749 746 744 740 737 733 729 726 722 718 716 712 709 706 703 700 698 699 699 696 693 690 688 687 684 682 681 679 678 678
Wind_Speed
9 10 11 13 14 16 14 11 7 3 4 7 9 15 18 22 23 24 24 24 27 29 32 29 26 27 29 28 26 28 25 24
9 10 12 13 14 14 13 11 11 8 4 4 6 9 12 15 17 22 26 32 33 34 34 30 33 31 33 29 28 27 30 27
8 9 10 10 10 10 11 11 10 10 8 5 7 10 10 12 13 17 20 24 30 33 36 37 39 35 35 36 35 31 29 28
6 6 7 7 9 9 9 10 9 9 9 6 7 7 7 9 9 11 14 18 23 32 37 39 38 37 37 40 38 39 32 33
5 5 6 7 8 9 10 9 8 8 9 8 9 9 9 9 11 11 14 14 14 17 28 38 41 40 39 39 43 42 39 33
4 4 4 5 6 7 8 10 10 10 10 9 10 10 11 11 10 11 12 11 12 13 14 18 30 36 39 40 37 39 43 39
1 2 3 4 4 8 10 12 13 13 13 12 12 12 12 13 11 12 11 12 11 12 13 15 16 22 34 41 47 48 46 46
3 5 7 7 8 10 11 13 15 17 16 16 16 16 15 15 13 12 11 11 10 11 12 12 15 16 23 23 29 33 39 38
6 8 12 14 16 17 17 17 20 20 20 20 19 18 19 18 16 14 13 12 12 10 10 11 13 14 17 17 23 26 30 37
11 14 16 18 19 22 23 24 22 22 22 21 21 21 22 22 20 18 16 14 14 14 13 13 14 15 14 15 20 22 25 32
11 13 18 20 20 20 20 19 22 20 19 19 20 21 22 23 22 21 19 18 17 17 17 16 17 17 15 15 16 17 21 27
13 13 17 19 20 20 21 21 19 18 18 18 18 18 18 20 21 22 20 19 20 19 20 20 20 20 18 16 16 17 19 23
13 15 17 16 18 21 20 20 23 18 20 20 18 20 20 20 20 18 18 19 21 21 21 22 20 22 20 18 17 15 18 22
13 14 15 17 20 23 19 18 20 21 20 23 22 21 20 19 21 26 25 24 22 21 19 20 18 20 20 19 19 18 18 23
13 13 15 20 21 23 24 20 23 26 24 23 25 25 24 22 20 22 27 27 26 24 21 19 17 17 19 22 21 19 20 23
16 16 16 22 24 25 26 28 28 27 28 30 27 26 26 24 25 21 23 25 22 24 22 20 18 17 18 18 23 24 22 20
17 17 18 22 25 27 29 30 32 31 31 31 32 31 32 30 26 23 26 23 25 24 22 22 20 19 21 19 21 22 20 19
17 18 21 27 29 30 31 32 33 34 35 35 35 34 34 32 32 30 26 22 25 25 24 23 21 19 19 19 17 20 18 18
20 23 29 32 34 34 34 35 35 35 35 34 33 32 33 32 31 28 23 23 25 24 24 23 20 17 17 17 15 16 17 17
Wind_Direction
82 67 56 53 48 52 55 50 29 329 269 240 261 262 261 257 253 247 241 236 233 227 237 234 232 227 223 224 222 218 220 213
97 73 56 49 42 43 43 42 36 32 360 309 288 276 269 260 260 254 252 245 237 231 233 235 234 232 224 217 218 221 215 210
101 84 69 52 41 28 24 23 19 14 5 334 295 296 289 290 286 270 256 257 239 232 234 232 236 233 225 224 206 214 219 208
116 85 63 44 39 29 23 15 14 6 356 340 324 295 292 297 301 297 276 266 252 249 238 235 234 230 226 222 216 204 210 213
93 75 53 41 22 7 360 358 354 352 348 341 336 319 310 314 298 293 295 291 288 268 253 241 237 234 236 225 216 215 214 211
99 75 36 58 7 345 332 323 316 318 322 323 318 312 313 310 308 305 297 293 288 286 279 276 261 247 239 227 223 217 217 224
334 98 24 37 8 340 327 314 307 303 296 294 292 295 301 302 300 300 301 302 302 304 302 306 297 279 251 244 229 220 220 222
306 6 -0 355 346 336 324 317 304 297 291 284 279 275 275 275 278 284 294 298 301 298 301 304 303 300 292 295 252 234 228 228
344 340 339 328 322 318 316 303 298 291 281 276 273 270 270 270 270 272 279 284 285 283 291 297 296 293 292 297 284 272 246 233
334 335 321 317 315 314 313 306 296 294 289 285 280 273 270 271 270 268 268 272 278 283 289 296 299 297 295 290 287 287 278 248
320 316 317 317 317 313 309 310 303 295 293 293 288 283 278 273 271 267 267 268 272 275 282 286 290 291 292 290 288 284 276 262
320 319 315 313 309 309 311 309 303 301 299 302 303 301 290 281 274 272 274 274 276 278 282 289 287 285 284 280 281 283 276 271
318 315 309 312 315 312 305 305 304 312 313 310 312 307 309 311 298 282 294 296 294 285 283 283 284 282 284 283 282 278 276 269
316 311 314 316 313 314 309 311 311 303 302 305 302 303 306 308 321 325 314 309 300 292 292 290 286 276 276 273 276 279 281 280
305 309 318 314 311 310 314 306 308 309 306 300 304 311 312 301 295 296 301 299 299 295 293 288 285 279 272 279 277 275 282 290
311 308 305 304 305 304 301 300 300 296 292 294 293 291 287 290 295 291 290 293 284 285 288 288 287 280 273 278 285 277 276 274
305 303 306 309 307 307 304 298 295 293 291 290 289 289 288 288 281 279 284 276 286 291 292 292 287 283 281 280 279 275 271 265
308 313 311 309 307 304 300 299 299 295 290 288 288 288 285 286 285 283 280 290 297 291 291 291 287 284 282 289 284 268 264 261
314 309 305 302 300 299 299 298 295 291 288 287 285 289 293 290 287 282 286 291 289 294 294 293 290 285 283 293 284 260 255 249